Terug naar catalogus

SARAMAGO

ActiefCommunicatieSSO
NORAD 100000·PAYLOAD·🇵🇹 Portugal

Gelanceerd Mar 30, 2026 vanaf Vandenberg Space Force Base

Loading…

Volgende Passages (komende 24 uur)

TLE

VersSource: Space-Track

Epoch: Sep 14, 2026, 03:49 UTC

1 A0000U 26067CY  26257.15968170  .00007343  00000-0  33071-3 0  9994
2 A0000  97.4677 214.7781 0009612  63.9156 296.3068 15.21322772 25227

Volg SARAMAGO in realtime met AllMySat

Download on the App Store